This is the latest recevied weather packets stored in our database for station/object N5XJB. If no packets are shown the sender has not sent any weather packets the latest 10 day(s).
| Time | Temp. | Humidity | Pressure | Rain* | Wind** | Luminosity | Snow |
|---|---|---|---|---|---|---|---|
| 1778112951 | 28.89° C | 81% | 1009.3 hPa | 0 mm | - | 22 W/m² | - |
| 1778112649 | 29.44° C | 81% | 1009.7 hPa | 0 mm | - | 35 W/m² | - |
| 1778112344 | 29.44° C | 81% | 1009.3 hPa | 0 mm | - | 56 W/m² | - |
| 1778112040 | 29.44° C | 81% | 1009.7 hPa | 0 mm | - | 59 W/m² | - |
| 1778111738 | 29.44° C | 81% | 1009.7 hPa | 0 mm | - | 61 W/m² | - |
| 1778111433 | 29.44° C | 82% | 1009.3 hPa | 0 mm | - | 52 W/m² | - |
| 1778111131 | 29.44° C | 81% | 1009.7 hPa | 0 mm | - | 55 W/m² | - |
| 1778110828 | 28.89° C | 81% | 1009.3 hPa | 0 mm | - | 67 W/m² | - |
| 1778110525 | 28.89° C | 81% | 1009.7 hPa | 0 mm | - | 98 W/m² | - |
| 1778110222 | 28.89° C | 81% | 1009.3 hPa | 0 mm | - | 89 W/m² | - |
| 1778109918 | 28.89° C | 81% | 1009.3 hPa | 0 mm | - | 93 W/m² | - |
| 1778109613 | 29.44° C | 82% | 1009.7 hPa | 0 mm | - | 80 W/m² | - |
| 1778109311 | 29.44° C | 82% | 1009 hPa | 0 mm | - | 43 W/m² | - |
| 1778109009 | 29.44° C | 82% | 1009.3 hPa | 0 mm | - | 32 W/m² | - |
| 1778108705 | 29.44° C | 81% | 1009.3 hPa | 0 mm | - | 48 W/m² | - |
| 1778108403 | 29.44° C | 81% | 1009.3 hPa | 0 mm | - | 40 W/m² | - |
| 1778108099 | 29.44° C | 80% | 1009.3 hPa | 0 mm | - | 51 W/m² | - |
| 1778107795 | 29.44° C | 80% | 1009 hPa | 0 mm | - | 64 W/m² | - |
| 1778107492 | 29.44° C | 79% | 1009.3 hPa | 0 mm | - | 72 W/m² | - |
| 1778107189 | 29.44° C | 79% | 1009.3 hPa | 0 mm | - | 114 W/m² | - |
| 1778106885 | 30° C | 77% | 1009 hPa | 0 mm | - | 75 W/m² | - |
| 1778106582 | 30° C | 76% | 1009 hPa | 0 mm | - | 127 W/m² | - |
| 1778106279 | 30° C | 76% | 1009 hPa | 0 mm | - | 87 W/m² | - |
| 1778105975 | 30° C | 74% | 1009 hPa | 0 mm | - | 130 W/m² | - |
| 1778105672 | 30° C | 75% | 1009 hPa | 0 mm | - | 95 W/m² | - |
* Rain latest hour (hover to see other rain measurements)
** Current wind speed in m/s (hover to see current wind gust speed)